[[{"header":{"parameterUnit":"m.s-1","parameterCategory":1,"la1":30.2991,"la2":30.254,"lo1":-89.0895,"lo2":-89.0444,"dy":0.0017,"dx":0.0017,"nx":28,"ny":28,"refTime":"2024-07-06T09:00:00:Z","depth":0,"parameterNumber":2,"parameterNumberName":"U-component_of_WINDS"},"data":[0,0,0,0,0,0,0,0,0,0,0,0,0,0,0,0,0,0,0,0,0,0,0,0,0,0,0,0,0,0,0,0,0,0,0,0,0,0,0,0,0,0,0,0,0,0,0,0,0,0,0,0,0,0,0,0,0,0,0.1702,0.1704,0,0.1887,0.1889,0.1891,0.1977,0.1977,0.1976,0.1976,0.2171,0.2176,0.2181,0,0,0,0,0,0,0,0,0,0,0,0,0,0.1429,0.1433,0.1702,0.1704,0.1707,0.1886,0.1889,0.1891,0.1977,0.1977,0.1976,0.1976,0.2169,0.2175,0.2182,0,0,0,0,0,0,0,0,0,0,0,0,0,0.1574,0.1435,0.1702,0.1771,0.1779,0.1886,0.1889,0.1892,0.1977,0.1977,0.1976,0.1976,0.2167,0.2175,0.2183,0.2236,0,0,0.2207,0.221,0,0,0,0,0,0,0,0,0.1565,0.1584,0.1758,0.1766,0.1775,0.1908,0.1864,0.2008,0.1977,0.1902,0.1976,0.1976,0.2084,0.2099,0.2134,0.2245,0.2254,0.2208,0.2212,0.2216,0.2218,0,0,0,0,0,0,0,0.1555,0.1576,0.1775,0.1761,0.1771,0.1794,0.1814,0.1891,0.1992,0.1908,0.1915,0.1935,0.2089,0.2126,0.2139,0.2257,0.2207,0.2214,0.2219,0.2223,0.2422,0.2422,0,0,0,0,0,0,0.1533,0.1567,0.1769,0.1781,0.1667,0.1799,0.1822,0.1866,0.1991,0.201,0.1935,0.1939,0.2113,0.213,0.2146,0.2218,0.2216,0.2223,0.2228,0.2421,0.2422,0.2422,0,0,0,0,0,0,0.1527,0.155,0.1762,0.1676,0.1705,0.1804,0.1853,0.187,0.1907,0.2012,0.2031,0.1955,0.2113,0.2135,0.2213,0.2226,0.2227,0.2234,0.2421,0.2421,0.2422,0.2361,0,0,0,0,0,0,0.1519,0.1547,0.1568,0.1676,0.1709,0.1824,0.1854,0.1873,0.192,0.1926,0.2035,0.2053,0.2115,0.2201,0.2221,0.2237,0.224,0.242,0.2421,0.2422,0.2362,0.236,0.2357,0,0,0,0,0,0.1509,0.1545,0.1568,0.1592,0.1736,0.1824,0.1844,0.1912,0.1921,0.1943,0.201,0.205,0.2221,0.2208,0.2231,0.225,0.242,0.2421,0.2422,0.2364,0.236,0.2357,0,0,0,0,0,0,0.1438,0.156,0.1588,0.1659,0.173,0.1839,0.1869,0.1906,0.1978,0.1981,0.2065,0.2089,0.2159,0.2213,0.2196,0.2309,0.2324,0.233,0.2271,0.2269,0.2267,0.2253,0.2247,0,0,0,0,0,0.143,0.149,0.1594,0.1648,0.1682,0.1768,0.181,0.1856,0.1934,0.1965,0.2038,0.2113,0.2185,0.223,0.2301,0.237,0.2396,0.2395,0.2392,0.2389,0.2394,0.2435,0.2436,0.2426,0.2426,0.2426,0,0,0.1416,0.149,0.1523,0.1635,0.1696,0.1757,0.1794,0.1857,0.1904,0.1976,0.2053,0.2109,0.2199,0.2272,0.2309,0.2319,0.2402,0.2391,0.2388,0.2394,0.2436,0.2437,0.2438,0.2427,0.2427,0.2427,0,0,0.1422,0.1483,0.1534,0.1594,0.1684,0.1742,0.1753,0.1856,0.1895,0.1973,0.2028,0.2086,0.2206,0.2268,0.2315,0.2342,0.2382,0.2363,0.235,0.2389,0.239,0.2391,0.2402,0.2404,0.2367,0.2367,0.2367,0,0.1394,0.1487,0.1556,0.1617,0.1665,0.1729,0.1782,0.1837,0.1947,0.1979,0.1989,0.2141,0.2206,0.2295,0.2301,0.2337,0.2355,0.2352,0.2384,0.2386,0.2388,0.2399,0.2403,0.2364,0.2365,0.2365,0.2365,0,0.1448,0.1511,0.1542,0.1644,0.1695,0.1752,0.1831,0.1875,0.1916,0.1973,0.2053,0.2133,0.2221,0.2245,0.2287,0.234,0.2344,0.2367,0.2385,0.2385,0.2397,0.2401,0.236,0.2361,0.2362,0.2363,0,0,0.1416,0.1554,0.1564,0.1611,0.1715,0.1766,0.1826,0.191,0.1947,0.202,0.2073,0.2172,0.2194,0.2247,0.2297,0.2331,0.2348,0.2351,0.2354,0.2348,0.2412,0.2395,0.2398,0.2374,0.2375,0.2376,0.2405,0,0.1437,0.1544,0.1608,0.169,0.1751,0.1812,0.1864,0.1934,0.1989,0.2049,0.211,0.2179,0.2203,0.2235,0.2271,0.2338,0.2362,0.2337,0.2426,0.2428,0.2402,0.2404,0.2386,0.241,0.241,0.2411,0.2411,0,0.1476,0.1545,0.1632,0.1729,0.1757,0.1802,0.1884,0.194,0.2021,0.2059,0.2117,0.2166,0.2233,0.2243,0.2337,0.2318,0.2358,0.2396,0.2399,0.2411,0.2421,0.2418,0.2419,0.2423,0.2419,0.2419,0.2418,0,0.1444,0.156,0.1627,0.1665,0.1779,0.181,0.1859,0.1939,0.1986,0.2058,0.2089,0.2169,0.2213,0.2274,0.2344,0.2345,0.2431,0.2447,0.2465,0.2463,0.2482,0.248,0.2491,0.2505,0.2505,0.2505,0.2505,0,0.1461,0.1513,0.1615,0.1656,0.1716,0.1789,0.1846,0.1901,0.1972,0.2026,0.2085,0.2135,0.2223,0.2285,0.234,0.2409,0.2429,0.2462,0.2476,0.2457,0.2453,0.2486,0.2486,0.2506,0.2506,0.2506,0.2505,0,0.1437,0.1507,0.1585,0.1685,0.1712,0.1751,0.1839,0.1882,0.1938,0.2006,0.2027,0.2116,0.2191,0.2266,0.2368,0.2405,0.2474,0.2493,0.2446,0.2455,0.2469,0.2467,0.2502,0.2511,0.2517,0.2517,0.2517,0,0.1444,0.1485,0.1589,0.1628,0.1676,0.1739,0.1786,0.1859,0.1906,0.2001,0.2033,0.2112,0.2179,0.2297,0.2372,0.245,0.2472,0.2479,0.2484,0.2464,0.2473,0.247,0.2475,0.2477,0.2476,0.2476,0.2476,0,0.1449,0.1481,0.1546,0.1622,0.1676,0.174,0.1807,0.1836,0.1923,0.1973,0.2049,0.2101,0.2204,0.2282,0.2369,0.2422,0.2464,0.2473,0.2482,0.2463,0.2435,0.2451,0.2441,0.2472,0.2473,0.2473,0.2473,0.2473,0.1442,0.1481,0.156,0.163,0.1687,0.1747,0.1793,0.1854,0.1918,0.2006,0.2046,0.2123,0.2203,0.2324,0.2375,0.2438,0.2449,0.2461,0.2465,0.2467,0.2463,0.2423,0.2454,0.2454,0.2454,0.2454,0.2455,0,0.1451,0.1504,0.1567,0.1657,0.1712,0.1744,0.1819,0.1864,0.193,0.2,0.2064,0.2152,0.2228,0.2308,0.2389,0.2424,0.2445,0.2442,0.2442,0.2453,0.2448,0.2432,0.2424,0.2424,0.2424,0.2424,0.2424,0.2424,0.1462,0.1529,0.1571,0.1667,0.1721,0.1795,0.1835,0.1892,0.1948,0.2043,0.2105,0.2156,0.2231,0.2317,0.2389,0.2411,0.2438,0.243,0.2458,0.2451,0.2453,0.2456,0.2442,0.2435,0.2435,0.2458,0.2458,0.2459]},{"header":{"parameterUnit":"m.s-1","parameterCategory":1,"la1":30.2991,"la2":30.254,"lo1":-89.0895,"lo2":-89.0444,"dy":0.0017,"dx":0.0017,"nx":28,"ny":28,"refTime":"2024-07-06T09:00:00:Z","depth":0,"parameterNumber":3,"parameterNumberName":"V-component_of_WINDS"},"data":[0,0,0,0,0,0,0,0,0,0,0,0,0,0,0,0,0,0,0,0,0,0,0,0,0,0,0,0,0,0,0,0,0,0,0,0,0,0,0,0,0,0,0,0,0,0,0,0,0,0,0,0,0,0,0,0,0,0,-0.28,-0.28,0,-0.2745,-0.2745,-0.2744,-0.2698,-0.2698,-0.2697,-0.2697,-0.2636,-0.2635,-0.2634,0,0,0,0,0,0,0,0,0,0,0,0,0,-0.2862,-0.2861,-0.28,-0.28,-0.2799,-0.2746,-0.2745,-0.2744,-0.2698,-0.2698,-0.2697,-0.2697,-0.2637,-0.2635,-0.2634,0,0,0,0,0,0,0,0,0,0,0,0,0,-0.2824,-0.2861,-0.28,-0.277,-0.2767,-0.2746,-0.2745,-0.2744,-0.2699,-0.2698,-0.2697,-0.2696,-0.2637,-0.2636,-0.2634,-0.2638,0,0,-0.2629,-0.2628,0,0,0,0,0,0,0,0,-0.2826,-0.2822,-0.2775,-0.2772,-0.2768,-0.2728,-0.2744,-0.2708,-0.2699,-0.2724,-0.2697,-0.2696,-0.2667,-0.2663,-0.2654,-0.2635,-0.2632,-0.2628,-0.2627,-0.2627,-0.2626,0,0,0,0,0,0,0,-0.2829,-0.2824,-0.2778,-0.2774,-0.277,-0.2758,-0.2752,-0.2737,-0.27,-0.2722,-0.2719,-0.2713,-0.2665,-0.2656,-0.2652,-0.2631,-0.2628,-0.2627,-0.2626,-0.2625,-0.2613,-0.2613,0,0,0,0,0,0,-0.2837,-0.2827,-0.278,-0.2777,-0.2796,-0.2757,-0.275,-0.2742,-0.27,-0.2694,-0.2714,-0.2711,-0.2659,-0.2654,-0.265,-0.2652,-0.2627,-0.2625,-0.2624,-0.2612,-0.2613,-0.2614,0,0,0,0,0,0,-0.2839,-0.2833,-0.2782,-0.2801,-0.2793,-0.2757,-0.2748,-0.2741,-0.2732,-0.2694,-0.2687,-0.2711,-0.2659,-0.2653,-0.2641,-0.2649,-0.2624,-0.2623,-0.2611,-0.2612,-0.2613,-0.2656,0,0,0,0,0,0,-0.2841,-0.2834,-0.2836,-0.2801,-0.2793,-0.2776,-0.2748,-0.274,-0.2729,-0.2725,-0.269,-0.2683,-0.2658,-0.2644,-0.264,-0.2646,-0.2621,-0.261,-0.2612,-0.2613,-0.2653,-0.2658,-0.2662,0,0,0,0,0,-0.2843,-0.2849,-0.2836,-0.2831,-0.2794,-0.2776,-0.2771,-0.2743,-0.273,-0.2731,-0.2707,-0.2684,-0.2649,-0.2644,-0.2638,-0.2644,-0.261,-0.2611,-0.2613,-0.2651,-0.2657,-0.2662,0,0,0,0,0,0,-0.2884,-0.2844,-0.2829,-0.2824,-0.2805,-0.2769,-0.2769,-0.275,-0.2731,-0.2728,-0.2692,-0.2685,-0.2678,-0.266,-0.2654,-0.2646,-0.2626,-0.2627,-0.2658,-0.2663,-0.2667,-0.2671,-0.262,0,0,0,0,0,-0.2893,-0.2883,-0.2848,-0.2847,-0.2838,-0.2806,-0.2796,-0.2777,-0.2754,-0.2744,-0.2719,-0.2697,-0.2681,-0.2671,-0.2654,-0.2651,-0.2642,-0.2652,-0.2657,-0.2661,-0.2661,-0.2658,-0.2662,-0.2619,-0.2619,-0.2619,0,0,-0.291,-0.2887,-0.2882,-0.2855,-0.2837,-0.2826,-0.2798,-0.2788,-0.278,-0.2742,-0.2731,-0.2712,-0.2684,-0.2678,-0.2673,-0.2662,-0.2671,-0.2663,-0.2666,-0.2664,-0.266,-0.2664,-0.2668,-0.262,-0.262,-0.2619,0,0,-0.2936,-0.2918,-0.2915,-0.2899,-0.2873,-0.2851,-0.2851,-0.2818,-0.2805,-0.2793,-0.2765,-0.2754,-0.2727,-0.2709,-0.2696,-0.2717,-0.2695,-0.2713,-0.2735,-0.2732,-0.2736,-0.2739,-0.2746,-0.2749,-0.2714,-0.2714,-0.2714,0,-0.296,-0.2945,-0.2916,-0.2908,-0.2897,-0.2864,-0.2861,-0.2846,-0.2815,-0.2807,-0.2796,-0.2762,-0.2742,-0.273,-0.2736,-0.2726,-0.2724,-0.2716,-0.2738,-0.274,-0.2743,-0.2749,-0.2752,-0.2716,-0.2716,-0.2715,-0.2715,0,-0.2976,-0.2965,-0.2966,-0.2939,-0.2928,-0.2922,-0.2892,-0.2884,-0.2866,-0.2845,-0.2834,-0.2808,-0.2786,-0.2782,-0.2762,-0.2768,-0.2762,-0.2745,-0.2724,-0.275,-0.2755,-0.2757,-0.2719,-0.2718,-0.2718,-0.2717,0,0,-0.3024,-0.2983,-0.2984,-0.2972,-0.2941,-0.2932,-0.2925,-0.2905,-0.2898,-0.2879,-0.2871,-0.285,-0.2835,-0.282,-0.2799,-0.2797,-0.2816,-0.278,-0.2779,-0.2788,-0.2819,-0.2832,-0.2835,-0.2802,-0.2802,-0.2802,-0.2822,0,-0.3045,-0.3032,-0.3007,-0.3002,-0.2991,-0.2961,-0.2955,-0.2935,-0.2917,-0.2905,-0.2883,-0.2869,-0.285,-0.2841,-0.2838,-0.2814,-0.2821,-0.2812,-0.2793,-0.2793,-0.2801,-0.2838,-0.2851,-0.287,-0.2824,-0.2824,-0.2824,0,-0.3067,-0.3051,-0.3045,-0.3017,-0.3011,-0.3007,-0.2986,-0.2976,-0.2952,-0.2939,-0.2924,-0.2901,-0.2891,-0.2874,-0.286,-0.2854,-0.2845,-0.2832,-0.2832,-0.2829,-0.281,-0.2835,-0.2876,-0.2879,-0.2827,-0.2827,-0.2827,0,-0.3103,-0.308,-0.3074,-0.3064,-0.303,-0.3028,-0.3013,-0.299,-0.2979,-0.2961,-0.2954,-0.2935,-0.2924,-0.2909,-0.2882,-0.2872,-0.2871,-0.285,-0.2858,-0.2859,-0.2858,-0.2859,-0.2898,-0.2854,-0.2854,-0.2854,-0.2854,0,-0.3128,-0.3126,-0.3089,-0.3085,-0.3082,-0.3053,-0.3049,-0.3032,-0.3012,-0.3003,-0.2975,-0.2968,-0.2932,-0.292,-0.2899,-0.289,-0.2885,-0.2873,-0.2867,-0.2875,-0.2877,-0.2868,-0.2866,-0.2854,-0.2854,-0.2854,-0.2854,0,-0.3167,-0.3143,-0.3134,-0.3104,-0.3096,-0.3094,-0.3068,-0.3062,-0.3043,-0.3032,-0.3028,-0.2997,-0.2981,-0.2953,-0.2929,-0.2914,-0.291,-0.29,-0.2918,-0.2914,-0.2924,-0.2923,-0.2958,-0.2961,-0.2916,-0.2916,-0.2917,0,-0.3185,-0.3182,-0.3153,-0.3146,-0.3133,-0.3122,-0.3112,-0.3084,-0.3074,-0.3049,-0.3046,-0.3029,-0.3014,-0.299,-0.2964,-0.2946,-0.2935,-0.2949,-0.2932,-0.294,-0.2935,-0.2935,-0.2935,-0.2952,-0.2953,-0.2953,-0.2954,0,-0.3218,-0.3207,-0.3194,-0.3178,-0.3167,-0.3152,-0.3136,-0.3131,-0.3099,-0.309,-0.3075,-0.3063,-0.304,-0.3023,-0.3001,-0.2985,-0.2964,-0.296,-0.296,-0.2968,-0.2979,-0.2973,-0.2928,-0.2959,-0.2958,-0.2958,-0.2957,-0.2957,-0.3246,-0.3243,-0.3222,-0.3209,-0.3194,-0.318,-0.3174,-0.3154,-0.3142,-0.3122,-0.3106,-0.3092,-0.3069,-0.3038,-0.3023,-0.3011,-0.3001,-0.3002,-0.3002,-0.3003,-0.3006,-0.2982,-0.3007,-0.3007,-0.3007,-0.3007,-0.3007,0,-0.3278,-0.3264,-0.3252,-0.3231,-0.3221,-0.3204,-0.3186,-0.3178,-0.3167,-0.3148,-0.3135,-0.3117,-0.3101,-0.3075,-0.3056,-0.3052,-0.3042,-0.3048,-0.3047,-0.3044,-0.3016,-0.3018,-0.3057,-0.3057,-0.3057,-0.3057,-0.3057,-0.3056,-0.3293,-0.3287,-0.3273,-0.326,-0.3245,-0.3232,-0.3223,-0.321,-0.3195,-0.3178,-0.3165,-0.3149,-0.3127,-0.3107,-0.3091,-0.3084,-0.3078,-0.3087,-0.3076,-0.3051,-0.3046,-0.3042,-0.3042,-0.3086,-0.3086,-0.3105,-0.3105,-0.3105]}]]